Погода в Приозёрном

Россия / Ямало-Ненецкий автономный округ     64°16′13″N   71°05′45″E
темп.,
°C
ветер,
м/с
пор.,
м/с
влажн.,
%
обл.,
%
осадки,
мм/ч
давл.,
гПа
погр.,
м
29 июля, чт
чт2923:00+12ю336095 0.0 100239
02:00+10ююв4569100 0.0 100257
05:00+12юв3769100 0.0 1002229
08:00+13юв4771100 0.3 1002590
11:00+11ююв3786100 1.8 1001306
14:00+11в3485100 0.3 1001316
17:00+12св3377100 0.5 1001548
20:00+11с2387100 0.4 1000116
30 июля, пт
пт3023:00+9сз2394100 0.9 99999
02:00+9зюз5996100 2.1 999401
05:00+7юз61088100 3.0 999302
08:00+9ююз81178100 0.1 999606
11:00+8ююз81293100 2.8 10001072
14:00+9ю91392100 5.7 1001742
17:00+9ююз81290100 7.9 1002626
20:00+9ю71094100 2.2 1003312
31 июля, сб
сб3123:00+9ююв7138689 2.6 1003273
02:00+8ю4590100 0.1 100389
05:00+9юз3488100 0.3 1004101
08:00+13зюз227480 0.0 1005345
11:00+16зюз355442 0.0 10051325
14:00+18юз344816 0.4 10051687
17:00+17зсз2357100 0.6 1006411
20:00+15ю236599 0.1 100648
1 августа, вс
вс123:00+13ююз346965 0.1 100751
02:00+12ю4771100 0.0 1007103
05:00+12ю4107634 0.0 1007184
08:00+17ю81259100 0.0 1005746
11:00+18ю91167100 0.6 1004943
14:00+14ююв71387100 2.0 1004496
17:00+14юв81580100 3.6 1004497
20:00+14юв81580100 1.9 1003354
2 августа, пн
пн223:00+14ююв61183100 1.9 1002266
02:00+14ююв5994100 1.3 1001297
05:00+14ююв4797100 1.8 1001297
08:00+14ююв2499100 1.9 1001183
11:00+16сз238999 2.3 1002376
14:00+18сз557699 1.3 1003760
17:00+19зсз4566100 1.4 1003539
20:00+17сз33750 0.0 100433